Location: Oshawa
(43.9000°N, 78.8670°W)
Time: 13:35:04
(UTC-04:00)

Cosmos 1408 Rocket - Visible Passes

Search period start: 31 July 2014 00:00
Search period end: 10 August 2014 00:00
Orbit: 604 x 632 km, 82.6° (Epoch: 30 July)

Date Brightness Start Highest point End Pass type
(mag) Time Alt. Az. Time Alt. Az. Time Alt. Az.
31 Jul 4.4 00:39:05 10° N 00:42:41 45° NE 00:42:41 45° NE visible
31 Jul 5.9 02:18:11 10° NW 02:19:49 15° WNW 02:19:49 15° WNW visible
01 Aug 4.2 00:56:01 10° N 00:59:31 54° N 00:59:31 54° N visible
01 Aug 5.6 23:36:25 10° NNE 23:39:14 17° ENE 23:39:14 17° ENE visible
02 Aug 4.7 01:13:11 10° NNW 01:16:21 38° NW 01:16:21 38° NW visible
02 Aug 5.0 23:52:43 10° NNE 23:56:05 28° ENE 23:56:05 28° ENE visible
03 Aug 5.4 01:30:37 10° NNW 01:33:12 24° WNW 01:33:12 24° WNW visible
04 Aug 4.4 00:09:24 10° N 00:12:56 44° NE 00:12:56 44° NE visible
04 Aug 6.0 01:48:35 10° NW 01:50:04 14° WNW 01:50:04 14° WNW visible
05 Aug 4.2 00:26:21 10° N 00:29:48 53° NNW 00:29:48 53° NNW visible
05 Aug 5.5 23:06:43 10° NNE 23:09:34 17° ENE 23:09:34 17° ENE visible
06 Aug 4.8 00:43:31 10° NNW 00:46:41 38° NW 00:46:41 38° NW visible
06 Aug 4.9 23:23:02 10° NNE 23:26:27 28° ENE 23:26:27 28° ENE visible
07 Aug 5.5 01:00:58 10° NNW 01:03:35 23° WNW 01:03:35 23° WNW visible
07 Aug 4.3 23:39:44 10° N 23:43:21 46° NE 23:43:21 46° NE visible
08 Aug 6.1 01:18:58 10° NW 01:20:29 14° WNW 01:20:29 14° WNW visible
08 Aug 4.1 23:56:41 10° N 00:00:16 57° NNW 00:00:16 57° NNW visible
09 Aug 5.4 22:37:01 10° NNE 22:40:00 17° ENE 22:40:03 17° ENE visible
